Fallon, NV

4:01 PM PDT on September 26, 2016 (GMT -0700)
Fallon Naval Air Station

Weather History for KNFL - December, 2012

Change the Weather History Date:

Tuesday, December 18, 2012

  Actual Average Record
Temperature  
Mean Temperature 30 °F -  
Max Temperature 38 °F 44 °F 60 °F (1941)
Min Temperature 23 °F 16 °F 2 °F (1928)
Degree Days  
Heating Degree Days 34    
Moisture  
Dew Point 19 °F    
Average Humidity 63    
Maximum Humidity 86    
Minimum Humidity 32    
Precipitation  
Precipitation 0.00 in - - ()
Sea Level Pressure  
Sea Level Pressure 29.83 in    
Wind  
Wind Speed 5 mph (NNW)    
Max Wind Speed 14 mph    
Max Gust Speed 18 mph    
Visibility 10 miles    
Events Snow    
Averages and records for this station are not official NWS values.
T = Trace of Precipitation, MM = Missing Value Source: NWS Daily Summary

Daily Weather History Graph

Daily Weather History Graph

Search for Another Location

Airport or City:

Trip Planner

Search our weather history database for the weather conditions in past years. The results will help you decide how hot, cold, wet, or windy it might be!

Date:

Astronomy

Dec. 18, 2012 Rise Set
Actual Time 7:10 AM PST 4:33 PM PST
Civil Twilight 6:39 AM PST 5:03 PM PST
Nautical Twilight 6:05 AM PST 5:37 PM PST
Astronomical Twilight 5:33 AM PST 6:10 PM PST
Moon 10:54 AM PST (12/18) 11:02 PM PST (12/18)
Length of Visible Light 10h 24m
Length of Day
9h 23m
Waxing Crescent, 36% of the Moon is Illuminated
Dec 18
Waxing Crescent
Dec 19
First Quarter
Dec 28
Full
Jan 4
Last Quarter
Jan 11
New

Hourly Weather History & Observations

Time (PST) Temp. Windchill Dew Point Humidity Pressure Visibility Wind Dir Wind Speed Gust Speed Precip Events Conditions
12:56 AM 33.1 °F - 26.1 °F 75% 29.80 in 9.0 mi Calm Calm - 0.00 in Snow Light Snow
1:56 AM 33.1 °F - 25.0 °F 72% 29.80 in 10.0 mi Calm Calm - 0.00 in   Overcast
2:56 AM 32.0 °F - 26.1 °F 79% 29.79 in 10.0 mi Calm Calm - N/A   Overcast
3:56 AM 32.0 °F 27.5 °F 23.0 °F 69% 29.78 in 10.0 mi NW 4.6 mph - N/A   Overcast
4:56 AM 32.0 °F 25.6 °F 24.1 °F 73% 29.78 in 10.0 mi SW 6.9 mph - N/A   Overcast
5:56 AM 30.0 °F 23.2 °F 26.1 °F 85% 29.79 in 10.0 mi WSW 6.9 mph - N/A   Overcast
6:19 AM 30.2 °F 26.7 °F 26.6 °F 86% 29.85 in 10.0 mi WSW 3.5 mph - N/A   Overcast
6:56 AM 30.9 °F - 25.0 °F 79% 29.79 in 10.0 mi Calm Calm - N/A   Mostly Cloudy
7:26 AM 30.2 °F 24.3 °F 23.0 °F 75% 29.86 in 10.0 mi NW 5.8 mph - 0.00 in Snow Light Snow
7:56 AM 30.9 °F 24.3 °F 21.0 °F 67% 29.80 in 9.0 mi NW 6.9 mph - 0.00 in Snow Light Snow
8:48 AM 30.2 °F 24.3 °F 21.2 °F 69% 29.87 in 8.0 mi NNW 5.8 mph - 0.00 in   Overcast
8:56 AM 30.9 °F 25.2 °F 21.0 °F 67% 29.79 in 10.0 mi North 5.8 mph - 0.00 in   Mostly Cloudy
9:56 AM 32.0 °F 24.2 °F 19.9 °F 61% 29.81 in 10.0 mi NNW 9.2 mph - N/A   Mostly Cloudy
10:56 AM 35.1 °F 27.4 °F 19.0 °F 52% 29.80 in 10.0 mi NNW 10.4 mph - N/A   Overcast
11:56 AM 37.9 °F 31.5 °F 17.1 °F 43% 29.77 in 10.0 mi North 9.2 mph - N/A   Mostly Cloudy
12:56 PM 37.9 °F 29.6 °F 14.0 °F 38% 29.75 in 10.0 mi NNW 13.8 mph 18.4 mph N/A   Overcast
2:56 PM 38.1 °F 30.7 °F 10.4 °F 32% 29.76 in 10.0 mi North 11.5 mph - N/A   Mostly Cloudy
3:56 PM 33.4 °F 25.9 °F 14.0 °F 45% 29.78 in 10.0 mi North 9.2 mph - N/A   Mostly Cloudy
4:56 PM 32.0 °F 24.2 °F 16.9 °F 54% 29.81 in 10.0 mi North 9.2 mph - N/A   Mostly Cloudy
5:56 PM 31.3 °F 23.9 °F 11.5 °F 44% 29.83 in 10.0 mi NNW 8.1 mph - N/A   Scattered Clouds
6:56 PM 28.0 °F 20.0 °F 13.3 °F 54% 29.86 in 10.0 mi NNW 8.1 mph - N/A   Scattered Clouds
7:56 PM 27.5 °F 20.2 °F 18.7 °F 69% 29.88 in 10.0 mi North 6.9 mph - N/A   Scattered Clouds
8:56 PM 26.6 °F 20.0 °F 13.3 °F 57% 29.91 in 10.0 mi North 5.8 mph - N/A   Partly Cloudy
9:56 PM 23.9 °F 16.8 °F 11.5 °F 59% 29.93 in 10.0 mi Variable 5.8 mph - N/A   Partly Cloudy
10:56 PM 23.9 °F 16.8 °F 13.3 °F 64% 29.95 in 10.0 mi Variable 5.8 mph - N/A   Partly Cloudy
11:56 PM - - - N/A% 29.97 in - North - - N/A   Unknown